• In Denmark
  • List of Countries
  • For 7 days
  • Water Temperature
  • Satellite Maps
  • Weather Map
  • Weather Widgets
  • user-avatar
    Login

    Hourly Weather Ashdod

    Today, 20 November, Monday

    Time Temperature Precipitation Wind Pressure Humidity
    00:00 +18°C° 0 mm 0 mps 760 mmHg 81%
    01:00 +18°C° 0 mm 0 mps 760 mmHg 82%
    02:00 +20°C° 0 mm 1 mps 760 mmHg 82%
    03:00 +20°C° 0 mm 1 mps 760 mmHg 82%
    04:00 +20°C° 0 mm 1 mps 760 mmHg 83%
    05:00 +19°C° 0 mm 1 mps 760 mmHg 83%
    06:00 +20°C° 0 mm 1 mps 760 mmHg 78%
    07:00 +21°C° 0 mm 1 mps 760 mmHg 74%
    08:00 +20°C° 0 mm 2 mps 760 mmHg 69%
    09:00 +21°C° 0 mm 2 mps 760 mmHg 64%
    10:00 +23°C° 0 mm 2 mps 760 mmHg 58%
    11:00 +24°C° 0 mm 3 mps 759 mmHg 52%
    12:00 +23°C° 0 mm 4 mps 759 mmHg 51%
    13:00 +23°C° 0 mm 5 mps 759 mmHg 50%
    14:00 +24°C° 0 mm 6 mps 759 mmHg 49%
    15:00 +23°C° 0.1 mm 5 mps 759 mmHg 54%
    16:00 +22°C° 0.1 mm 5 mps 759 mmHg 58%
    17:00 +21°C° 0.1 mm 5 mps 759 mmHg 63%
    18:00 +21°C° 0.3 mm 4 mps 759 mmHg 64%
    19:00 +21°C° 0.3 mm 4 mps 759 mmHg 65%
    20:00 +20°C° 0.3 mm 3 mps 759 mmHg 67%
    21:00 +20°C° 0.3 mm 4 mps 759 mmHg 67%
    22:00 +20°C° 0.3 mm 4 mps 759 mmHg 67%
    23:00 +20°C° 0.3 mm 4 mps 759 mmHg 67%

    Tomorrow, 21 November, Tuesday

    Time Temperature Precipitation Wind Pressure Humidity
    00:00 +19°C° 0.3 mm 5 mps 758 mmHg 67%
    01:00 +19°C° 0.3 mm 5 mps 758 mmHg 67%
    02:00 +19°C° 0.3 mm 6 mps 758 mmHg 67%
    03:00 +18°C° 0.6 mm 7 mps 758 mmHg 68%
    04:00 +18°C° 0.6 mm 7 mps 758 mmHg 68%
    05:00 +18°C° 0.6 mm 8 mps 758 mmHg 68%
    06:00 +18°C° 0.9 mm 8 mps 758 mmHg 70%
    07:00 +18°C° 0.9 mm 8 mps 758 mmHg 71%
    08:00 +18°C° 0.9 mm 9 mps 758 mmHg 73%
    09:00 +18°C° 1 mm 9 mps 759 mmHg 72%
    10:00 +19°C° 1 mm 9 mps 759 mmHg 72%
    11:00 +19°C° 1 mm 9 mps 759 mmHg 72%
    12:00 +19°C° 0.5 mm 10 mps 759 mmHg 69%
    13:00 +19°C° 0.5 mm 10 mps 759 mmHg 65%
    14:00 +19°C° 0.5 mm 10 mps 759 mmHg 62%
    15:00 +19°C° 0.1 mm 10 mps 759 mmHg 62%
    16:00 +18°C° 0.1 mm 9 mps 759 mmHg 63%
    17:00 +18°C° 0.1 mm 9 mps 759 mmHg 63%
    18:00 +17°C° 0.1 mm 9 mps 759 mmHg 63%
    19:00 +17°C° 0.1 mm 8 mps 760 mmHg 64%
    20:00 +17°C° 0.1 mm 8 mps 760 mmHg 65%
    21:00 +17°C° 0.1 mm 8 mps 760 mmHg 64%
    22:00 +17°C° 0.1 mm 8 mps 760 mmHg 63%
    23:00 +16°C° 0.1 mm 8 mps 760 mmHg 63%

    Day after tomorrow, 22 November, Wednesday

    Time Temperature Precipitation Wind Pressure Humidity
    00:00 +16°C° 0.1 mm 7 mps 760 mmHg 63%
    01:00 +16°C° 0.1 mm 7 mps 760 mmHg 63%
    02:00 +16°C° 0.1 mm 7 mps 760 mmHg 64%
    03:00 +16°C° 0.1 mm 7 mps 760 mmHg 64%
    04:00 +16°C° 0.1 mm 6 mps 760 mmHg 65%
    05:00 +16°C° 0.1 mm 6 mps 760 mmHg 65%
    06:00 +16°C° 0.1 mm 6 mps 760 mmHg 63%
    07:00 +17°C° 0.1 mm 6 mps 761 mmHg 62%
    08:00 +17°C° 0.1 mm 5 mps 761 mmHg 60%
    09:00 +17°C° 0.1 mm 5 mps 761 mmHg 58%
    10:00 +19°C° 0.1 mm 5 mps 761 mmHg 56%
    11:00 +19°C° 0.1 mm 5 mps 761 mmHg 54%
    12:00 +19°C° 0.1 mm 6 mps 761 mmHg 54%
    13:00 +19°C° 0.1 mm 6 mps 761 mmHg 55%
    14:00 +19°C° 0.1 mm 6 mps 760 mmHg 55%
    15:00 +19°C° 0.4 mm 5 mps 761 mmHg 58%
    16:00 +19°C° 0.4 mm 5 mps 761 mmHg 62%
    17:00 +18°C° 0.4 mm 4 mps 761 mmHg 65%
    18:00 +18°C° 0.3 mm 4 mps 761 mmHg 67%
    19:00 +18°C° 0.3 mm 3 mps 762 mmHg 68%
    20:00 +18°C° 0.3 mm 3 mps 762 mmHg 70%
    21:00 +17°C° 0.1 mm 3 mps 762 mmHg 70%
    22:00 +17°C° 0.1 mm 2 mps 762 mmHg 70%
    23:00 +17°C° 0.1 mm 2 mps 762 mmHg 70%

    23 November, Thursday

    Time Temperature Precipitation Wind Pressure Humidity
    00:00 +17°C° 0 mm 2 mps 762 mmHg 70%
    01:00 +17°C° 0 mm 2 mps 762 mmHg 70%
    02:00 +16°C° 0 mm 2 mps 762 mmHg 70%
    03:00 +16°C° 0 mm 2 mps 762 mmHg 71%
    04:00 +16°C° 0 mm 2 mps 762 mmHg 72%
    05:00 +16°C° 0 mm 2 mps 762 mmHg 72%
    06:00 +16°C° 0 mm 2 mps 762 mmHg 70%
    07:00 +16°C° 0 mm 2 mps 763 mmHg 68%
    08:00 +17°C° 0 mm 2 mps 763 mmHg 66%
    09:00 +17°C° 0 mm 2 mps 763 mmHg 61%
    10:00 +19°C° 0 mm 1 mps 763 mmHg 56%
    11:00 +20°C° 0 mm 1 mps 763 mmHg 51%
    12:00 +20°C° 0 mm 1 mps 763 mmHg 49%
    13:00 +19°C° 0 mm 2 mps 762 mmHg 48%
    14:00 +20°C° 0 mm 2 mps 762 mmHg 47%
    15:00 +19°C° 0 mm 2 mps 762 mmHg 48%
    16:00 +19°C° 0 mm 2 mps 762 mmHg 50%
    17:00 +19°C° 0 mm 2 mps 762 mmHg 51%
    18:00 +18°C° 0 mm 2 mps 762 mmHg 52%
    19:00 +18°C° 0 mm 2 mps 763 mmHg 54%
    20:00 +19°C° 0 mm 1 mps 763 mmHg 55%
    21:00 +18°C° 0 mm 1 mps 763 mmHg 56%
    22:00 +18°C° 0 mm 1 mps 763 mmHg 57%
    23:00 +18°C° 0 mm 1 mps 763 mmHg 58%

    24 November, Friday

    Time Temperature Precipitation Wind Pressure Humidity
    00:00 +18°C° 0 mm 1 mps 763 mmHg 59%
    01:00 +16°C° 0 mm 2 mps 763 mmHg 60%
    02:00 +16°C° 0 mm 2 mps 763 mmHg 60%
    03:00 +16°C° 0 mm 2 mps 763 mmHg 61%
    04:00 +16°C° 0 mm 2 mps 763 mmHg 62%
    05:00 +15°C° 0 mm 2 mps 763 mmHg 63%
    06:00 +16°C° 0 mm 2 mps 763 mmHg 59%
    07:00 +17°C° 0 mm 3 mps 763 mmHg 56%
    08:00 +17°C° 0 mm 3 mps 764 mmHg 53%
    09:00 +18°C° 0 mm 2 mps 764 mmHg 50%
    10:00 +19°C° 0 mm 2 mps 763 mmHg 47%
    11:00 +21°C° 0 mm 1 mps 763 mmHg 44%
    12:00 +21°C° 0 mm 1 mps 763 mmHg 43%
    13:00 +22°C° 0 mm 1 mps 763 mmHg 43%
    14:00 +21°C° 0 mm 2 mps 762 mmHg 43%
    15:00 +21°C° 0 mm 2 mps 763 mmHg 46%
    16:00 +20°C° 0 mm 2 mps 763 mmHg 49%
    17:00 +20°C° 0 mm 2 mps 763 mmHg 52%
    18:00 +19°C° 0 mm 2 mps 763 mmHg 54%
    19:00 +19°C° 0 mm 2 mps 764 mmHg 56%
    20:00 +18°C° 0 mm 2 mps 764 mmHg 59%
    21:00 +18°C° 0 mm 2 mps 764 mmHg 59%
    22:00 +18°C° 0 mm 2 mps 764 mmHg 60%
    23:00 +18°C° 0 mm 2 mps 764 mmHg 61%

    25 November, Saturday

    Time Temperature Precipitation Wind Pressure Humidity
    00:00 +17°C° 0 mm 3 mps 764 mmHg 61%
    01:00 +17°C° 0 mm 3 mps 764 mmHg 61%
    02:00 +17°C° 0 mm 3 mps 764 mmHg 61%
    03:00 +17°C° 0 mm 3 mps 764 mmHg 60%
    04:00 +16°C° 0 mm 3 mps 763 mmHg 60%
    05:00 +16°C° 0 mm 3 mps 763 mmHg 59%
    06:00 +17°C° 0 mm 3 mps 764 mmHg 55%
    07:00 +18°C° 0 mm 3 mps 764 mmHg 52%
    08:00 +18°C° 0 mm 3 mps 764 mmHg 48%
    09:00 +20°C° 0 mm 3 mps 764 mmHg 42%
    10:00 +21°C° 0 mm 3 mps 763 mmHg 36%
    11:00 +22°C° 0 mm 3 mps 763 mmHg 30%
    12:00 +24°C° 0 mm 3 mps 763 mmHg 29%
    13:00 +24°C° 0 mm 3 mps 762 mmHg 28%
    14:00 +23°C° 0 mm 4 mps 762 mmHg 27%
    15:00 +23°C° 0 mm 4 mps 762 mmHg 29%
    16:00 +22°C° 0 mm 4 mps 762 mmHg 31%
    17:00 +21°C° 0 mm 5 mps 762 mmHg 34%
    18:00 +21°C° 0 mm 5 mps 762 mmHg 35%
    19:00 +20°C° 0 mm 5 mps 762 mmHg 37%
    20:00 +20°C° 0 mm 5 mps 762 mmHg 38%
    21:00 +20°C° 0 mm 5 mps 762 mmHg 39%
    22:00 +19°C° 0 mm 4 mps 762 mmHg 40%
    23:00 +19°C° 0 mm 4 mps 762 mmHg 41%
    Show more